TimeEDT,TemperatureF,Dew PointF,Humidity,Sea Level PressureIn,VisibilityMPH,Wind Direction,Wind SpeedMPH,Gust SpeedMPH,PrecipitationIn,Events,Conditions,WindDirDegrees,DateUTC
12:15 AM,60.6,59.9,97,29.97,10.0,Calm,Calm,-,N/A,,Clear,0,2013-09-25 04:15:00
12:35 AM,60.1,59.4,97,29.97,10.0,Calm,Calm,-,N/A,,Clear,0,2013-09-25 04:35:00
12:55 AM,59.5,59.0,98,29.96,10.0,Calm,Calm,-,N/A,,Clear,0,2013-09-25 04:55:00
1:15 AM,59.9,59.0,97,29.96,10.0,Calm,Calm,-,N/A,,Clear,0,2013-09-25 05:15:00
1:35 AM,59.4,59.0,99,29.96,10.0,Calm,Calm,-,N/A,,Clear,0,2013-09-25 05:35:00
1:55 AM,59.0,58.3,97,29.96,10.0,Calm,Calm,-,N/A,,Clear,0,2013-09-25 05:55:00
2:15 AM,58.6,58.1,98,29.96,10.0,Calm,Calm,-,N/A,,Scattered Clouds,0,2013-09-25 06:15:00
2:35 AM,58.3,57.9,99,29.95,10.0,Calm,Calm,-,N/A,,Mostly Cloudy,0,2013-09-25 06:35:00
2:55 AM,58.1,57.4,97,29.95,10.0,Calm,Calm,-,N/A,,Scattered Clouds,0,2013-09-25 06:55:00
3:35 AM,57.6,57.2,99,29.95,7.0,Calm,Calm,-,N/A,,Clear,0,2013-09-25 07:35:00
3:55 AM,57.0,56.7,99,29.95,7.0,Calm,Calm,-,N/A,,Clear,0,2013-09-25 07:55:00
4:15 AM,56.7,56.5,99,29.94,7.0,Calm,Calm,-,N/A,,Scattered Clouds,0,2013-09-25 08:15:00
4:35 AM,56.7,56.5,99,29.95,7.0,Calm,Calm,-,N/A,,Overcast,0,2013-09-25 08:35:00
4:55 AM,57.2,56.5,97,29.93,10.0,Calm,Calm,-,N/A,,Overcast,0,2013-09-25 08:55:00
5:35 AM,57.0,56.5,98,29.94,7.0,Calm,Calm,-,N/A,,Scattered Clouds,0,2013-09-25 09:35:00
5:55 AM,55.9,55.8,99,29.94,5.0,Calm,Calm,-,N/A,,Clear,0,2013-09-25 09:55:00
6:15 AM,55.9,55.9,100,29.93,7.0,Calm,Calm,-,N/A,,Clear,0,2013-09-25 10:15:00
6:35 AM,55.4,55.0,99,29.93,5.0,Calm,Calm,-,N/A,,Clear,0,2013-09-25 10:35:00
6:55 AM,54.9,54.9,100,29.93,7.0,Calm,Calm,-,N/A,,Clear,0,2013-09-25 10:55:00
7:15 AM,54.9,54.9,100,29.93,4.0,Calm,Calm,-,N/A,,Clear,0,2013-09-25 11:15:00
7:35 AM,55.6,55.6,100,29.94,7.0,Calm,Calm,-,N/A,,Clear,0,2013-09-25 11:35:00
7:55 AM,57.2,56.5,97,29.94,5.0,Calm,Calm,-,N/A,,Clear,0,2013-09-25 11:55:00
8:15 AM,57.6,57.0,98,29.95,7.0,Calm,Calm,-,N/A,,Clear,0,2013-09-25 12:15:00
8:35 AM,58.1,57.6,98,29.95,5.0,Calm,Calm,-,N/A,,Clear,0,2013-09-25 12:35:00
8:55 AM,59.7,58.6,96,29.95,7.0,Calm,Calm,-,N/A,,Clear,0,2013-09-25 12:55:00
9:15 AM,61.7,59.0,91,29.95,10.0,Calm,Calm,-,N/A,,Clear,0,2013-09-25 13:15:00
9:35 AM,62.8,57.4,82,29.95,10.0,Calm,Calm,-,N/A,,Clear,0,2013-09-25 13:35:00
9:55 AM,64.4,56.5,75,29.95,10.0,Calm,Calm,-,N/A,,Clear,0,2013-09-25 13:55:00
10:15 AM,64.9,57.7,77,29.95,10.0,Calm,Calm,-,N/A,,Clear,0,2013-09-25 14:15:00
10:35 AM,66.4,59.0,77,29.95,10.0,Calm,Calm,-,N/A,,Clear,0,2013-09-25 14:35:00
10:55 AM,68.7,57.2,67,29.94,10.0,Calm,Calm,-,N/A,,Clear,0,2013-09-25 14:55:00
11:15 AM,69.4,56.5,63,29.94,10.0,Calm,Calm,-,N/A,,Clear,0,2013-09-25 15:15:00
11:35 AM,70.2,55.6,60,29.94,10.0,Calm,Calm,-,N/A,,Clear,0,2013-09-25 15:35:00
11:55 AM,70.5,55.9,60,29.94,10.0,Calm,Calm,-,N/A,,Scattered Clouds,0,2013-09-25 15:55:00
12:15 PM,72.1,55.2,55,29.94,3.0,ESE,5.8,-,N/A,,Haze,120,2013-09-25 16:15:00
12:35 PM,73.4,55.0,52,29.94,5.0,ENE,3.5,-,N/A,,Haze,70,2013-09-25 16:35:00
12:55 PM,74.1,55.0,51,29.94,10.0,SE,5.8,-,N/A,,Mostly Cloudy,130,2013-09-25 16:55:00
1:15 PM,75.0,54.3,48,29.93,5.0,East,8.1,-,N/A,,Haze,100,2013-09-25 17:15:00
1:35 PM,74.1,54.9,51,29.92,7.0,East,6.9,-,N/A,,Scattered Clouds,100,2013-09-25 17:35:00
2:15 PM,75.9,54.5,47,29.92,7.0,East,4.6,-,N/A,,Mostly Cloudy,90,2013-09-25 18:15:00
2:55 PM,76.1,54.5,47,29.90,10.0,NE,6.9,-,N/A,,Mostly Cloudy,50,2013-09-25 18:55:00
3:15 PM,74.8,53.6,47,29.89,10.0,Calm,Calm,-,N/A,,Scattered Clouds,0,2013-09-25 19:15:00
3:35 PM,75.0,54.0,48,29.89,10.0,ENE,4.6,-,N/A,,Scattered Clouds,70,2013-09-25 19:35:00
3:55 PM,74.7,55.0,50,29.89,10.0,NNE,4.6,-,N/A,,Mostly Cloudy,20,2013-09-25 19:55:00
4:15 PM,74.7,54.5,49,29.89,10.0,NE,5.8,-,N/A,,Overcast,50,2013-09-25 20:15:00
4:55 PM,75.4,55.0,49,29.88,10.0,NNE,3.5,-,N/A,,Scattered Clouds,30,2013-09-25 20:55:00
5:15 PM,73.8,55.8,53,29.88,10.0,NNE,5.8,-,N/A,,Scattered Clouds,30,2013-09-25 21:15:00
5:35 PM,73.0,56.3,56,29.88,10.0,NNE,4.6,-,N/A,,Mostly Cloudy,30,2013-09-25 21:35:00
5:55 PM,73.2,56.5,56,29.88,10.0,NNE,3.5,-,N/A,,Overcast,30,2013-09-25 21:55:00
6:15 PM,72.9,57.0,57,29.88,10.0,East,3.5,-,N/A,,Scattered Clouds,80,2013-09-25 22:15:00
6:35 PM,71.6,59.0,64,29.89,7.0,Calm,Calm,-,N/A,,Scattered Clouds,0,2013-09-25 22:35:00
6:55 PM,71.1,58.6,65,29.89,10.0,Calm,Calm,-,N/A,,Scattered Clouds,0,2013-09-25 22:55:00
7:15 PM,69.4,61.2,75,29.89,10.0,Calm,Calm,-,N/A,Rain,Light Rain,0,2013-09-25 23:15:00
7:35 PM,68.7,61.3,77,29.89,10.0,Calm,Calm,-,N/A,,Overcast,0,2013-09-25 23:35:00
7:55 PM,68.2,60.8,77,29.89,10.0,Calm,Calm,-,N/A,,Overcast,0,2013-09-25 23:55:00
8:15 PM,67.5,62.6,84,29.89,10.0,Calm,Calm,-,N/A,,Overcast,0,2013-09-26 00:15:00
8:35 PM,67.5,62.4,84,29.90,10.0,Calm,Calm,-,N/A,,Overcast,0,2013-09-26 00:35:00
8:55 PM,66.9,63.1,88,29.90,10.0,South,3.5,-,N/A,,Overcast,170,2013-09-26 00:55:00
9:15 PM,67.1,63.7,89,29.90,10.0,Calm,Calm,-,N/A,,Overcast,0,2013-09-26 01:15:00
9:35 PM,67.1,63.3,88,29.89,10.0,Calm,Calm,-,N/A,,Mostly Cloudy,0,2013-09-26 01:35:00
9:55 PM,66.2,63.1,90,29.88,10.0,Calm,Calm,-,N/A,,Scattered Clouds,0,2013-09-26 01:55:00
10:15 PM,66.2,62.8,89,29.89,10.0,Calm,Calm,-,N/A,,Scattered Clouds,0,2013-09-26 02:15:00
10:35 PM,65.7,63.5,93,29.89,10.0,Calm,Calm,-,N/A,,Scattered Clouds,0,2013-09-26 02:35:00
10:55 PM,65.7,63.7,93,29.89,10.0,Calm,Calm,-,N/A,,Mostly Cloudy,0,2013-09-26 02:55:00
11:15 PM,65.3,64.0,96,29.89,10.0,Calm,Calm,-,N/A,,Overcast,0,2013-09-26 03:15:00
11:35 PM,65.3,63.7,94,29.89,10.0,Calm,Calm,-,N/A,,Overcast,0,2013-09-26 03:35:00
11:55 PM,64.6,63.5,96,29.91,10.0,Calm,Calm,-,N/A,,Overcast,0,2013-09-26 03:55:00